Regional Weather Roundup
Issued by NWS Green Bay, WI

Home | Current Version | Previous Version | Text Only | Print | Product List | Glossary On
Versions: 1 2 3 4 5 6 7 8 9 10 11 12 13 14 15 16 17 18 19 20 21 22 23 24 25 26 27 28 29 30 31 32 33 34 35 36 37 38 39 40 41 42 43 44 45 46 47 48 49 50
000
ASUS43 KGRB 202359
RWRGRB

NORTH-CENTRAL AND NORTHEAST WISCONSIN REGIONAL WEATHER ROUNDUP
NATIONAL WEATHER SERVICE GREEN BAY WI
700 PM CDT WED AUG 20 2014

WIZ005-009-010>012-018-019-210100-
NORTH CENTRAL WISCONSIN

CITY           SKY/WX    TMP DP  RH WIND       PRES   REMARKS
IRONWOOD       CLOUDY    64  61  88 CALM      29.92S
MANITOWISH WTR NOT AVBL
ARBOR VITAE    NOT AVBL
EAGLE RIVER    NOT AVBL
LAND O LAKES   NOT AVBL
RHINELANDER    CLOUDY    67  60  78 CALM      29.95S
PHILLIPS       CLOUDY    67  62  83 CALM      29.93S
ANTIGO         NOT AVBL
TOMAHAWK       NOT AVBL
MERRILL        NOT AVBL
$$

WIZ013-073-210100-
NORTHEAST WISCONSIN

CITY           SKY/WX    TMP DP  RH WIND       PRES   REMARKS
IRON MOUNTAIN  CLOUDY    68  61  78 N7        29.92R
MARINETTE      MOCLDY    70  63  78 CALM      29.90S
$$

WIZ017-030-035>037-045-210100-
CENTRAL WISCONSIN

CITY           SKY/WX    TMP DP  RH WIND       PRES   REMARKS
MEDFORD        NOT AVBL
WAUSAU         CLOUDY    73  60  63 CALM      29.90S
MOSINEE        PTCLDY    72  63  73 VRB5      29.92S
MARSHFIELD     PTCLDY    74  62  66 NE6       29.91S
WISC RAPIDS    PTCLDY    75  62  64 NE7       29.91S
STEVENS POINT  NOT AVBL
WAUPACA        NOT AVBL
SHAWANO        CLOUDY    73  64  72 CALM      29.91S
CLINTONVILLE   NOT AVBL
$$

WIZ038-039-048-051-210100-
FOX VALLEY

CITY           SKY/WX    TMP DP  RH WIND       PRES   REMARKS
NWS GREEN BAY  CLEAR     74  63  68 CALM      29.90F
APPLETON       PTCLDY    73  61  64 N8        29.91
OSHKOSH        CLEAR     74  64  71 NE7       29.90R
FOND DU LAC    CLEAR     74  64  71 MISG      29.90R
$$

WIZ022-050-052-210100-
EAST CENTRAL WISCONSIN

CITY           SKY/WX    TMP DP  RH WIND       PRES   REMARKS
STURGEON BAY   CLEAR     70  61  73 NW3       29.92R
MANITOWOC      NOT AVBL
SHEBOYGAN      CLEAR     70  63  78 E5        29.91S
$$

LMZ563-521-522-541>543-210100-
LAKESHORE

STATION/POSITION TIME  TEMP    WIND        PRES    VSBY  WAVE
                       AIR SEA DIR/SP/G                  HT/PER
                 (UTC) (F)     (DEG/KT/KT) (MB)    (MI)  (FT/S)
SHEBOYGAN LKSHOR 2300   67 66  150/  3/  4 1012.9R
KEWAUNEE LKSHORE 2300   67     160/  6/  7 1012.0R
NORTHPORT PIER   2300   65     140/  3/  4 1012.9S
N MID LAKE BUOY  2300   63 63  210/  8/  8 1012.3R         1
S GREEN BAY BUOY 2300   70     VRB  4      1013.5R
CHAMBERS ISLAND  2300   68      CALM  /  5 1012.9S
MENOMINEE LKSHOR 2300   69     120/  2/  3 1013.0S
$$


USA.gov is the U.S. government's official web portal to all federal, state and local government web resources and services.